Regional Weather Roundup
Issued by NWS

Home | Current Version | Previous Version | Text Only | Print | Product List | Glossary On
Versions: 1 2 3 4 5 6 7 8 9 10 11 12 13 14 15 16 17 18 19 20 21 22 23 24 25 26 27 28 29 30 31 32 33 34 35 36 37 38 39 40 41 42 43 44 45 46 47 48 49 50
000
ASUS44 KFWD 041215
RWRTX
NORTH TEXAS HOURLY WEATHER ROUNDUP
NATIONAL WEATHER SERVICE FORT WORTH TX
700 AM CDT TUE AUG 04 2015

NOTE: "FAIR" INDICATES FEW OR NO CLOUDS BELOW 12,000 FEET WITH NO
SIGNIFICANT WEATHER AND/OR OBSTRUCTIONS TO VISIBILITY.

TXZ118-119-041300-
DALLAS/FORT WORTH METROPLEX

CITY           SKY/WX    TMP DP  RH WIND       PRES   REMARKS
DFW AIRPORT    MOCLDY    80  65  59 S7        29.93R
6HR MIN TEMP:  79; 6HR MAX TEMP:  86;

DALLAS LOVE    MOCLDY    83  66  56 SW6       29.94R
6HR MIN TEMP:  82; 6HR MAX TEMP:  88;

FTW MEACHAM    PTCLDY    81  64  56 S7        29.93R
6HR MIN TEMP:  79; 6HR MAX TEMP:  86;

DAL-EXECUTIVE  PTCLDY    79  67  66 S5        29.94R
6HR MIN TEMP:  79; 6HR MAX TEMP:  84;

FTW-ALLIANCE   CLOUDY    78  64  61 CALM      29.94R
6HR MIN TEMP:  76; 6HR MAX TEMP:  82;

FTW-NAS-JRB    MOCLDY    80  65  59 S7        29.94R
6HR MIN TEMP:  80; 6HR MAX TEMP:  86;

FTW-SPINKS     CLEAR     77  64  65 S6        29.96R
ARLINGTON      PTCLDY    78  64  61 S5        29.95R
6HR MIN TEMP:  78; 6HR MAX TEMP:  84;

GRAND PRAIRIE  CLEAR     79  66  65 S5        29.95R
ADDISON        MOCLDY    82  63  51 S6        29.96R
MESQUITE       CLEAR     75  66  73 CALM      29.94R
LANCASTER      PTCLDY    76  65  67 CALM      29.95R
6HR MIN TEMP:  76; 6HR MAX TEMP:  80;

$$

TXZ091>094-102>105-117-120-121-131>134-041300-
NORTH CENTRAL TEXAS

CITY           SKY/WX    TMP DP  RH WIND       PRES   REMARKS
SHRMAN/DENISON CLOUDY    81  67  63 CALM      29.96R
6HR MIN TEMP:  81; 6HR MAX TEMP:  85;

GAINESVILLE    CLOUDY    77  65  66 S5        29.97R
6HR MIN TEMP:  76; 6HR MAX TEMP:  81;

BOWIE          MOCLDY    75  64  67 CALM      29.96R
6HR MIN TEMP:  74; 6HR MAX TEMP:  78;

DECATUR        MOCLDY    79  61  52 S7        29.96R
6HR MIN TEMP:  79; 6HR MAX TEMP:  83;

DENTON         MOCLDY    77  67  71 CALM      29.94R
6HR MIN TEMP:  76; 6HR MAX TEMP:  82;

MCKINNEY       MOCLDY    76  67  73 S3        29.94R
6HR MIN TEMP:  76; 6HR MAX TEMP:  83;

GREENVILLE     MOCLDY    77  66  69 CALM      29.96R
ROCKWALL       MOCLDY    79  68  69 SE6       29.94R
6HR MIN TEMP:  78; 6HR MAX TEMP:  83;

TERRELL        PTCLDY    77  68  73 CALM      29.95R
6HR MIN TEMP:  76; 6HR MAX TEMP:  83;

WAXAHACHIE     PTCLDY    74  68  80 CALM      29.96R
6HR MIN TEMP:  74; 6HR MAX TEMP:  79;

CLEBURNE         N/A     75  70  83 S5        29.98R
GRANBURY       CLEAR     78  64  61 CALM      29.96R
6HR MIN TEMP:  76; 6HR MAX TEMP:  85;

$$

TXZ083>090-098>101-113>116-127>130-139>142-154-155-041300-
WESTERN NORTH TEXAS

CITY           SKY/WX    TMP DP  RH WIND       PRES   REMARKS
WICHITA FALLS  CLOUDY    76  68  76 E8        29.93R
6HR MIN TEMP:  76; 6HR MAX TEMP:  81; 6HR PCP:  0.01;

WF-KICKAPOO    CLOUDY    78  66  64 E5        29.93R
6HR MIN TEMP:  78; 6HR MAX TEMP:  82;

VERNON         CLOUDY    74  67  77 NE7       29.95R
6HR MIN TEMP:  71; 6HR MAX TEMP:  96;

ABILENE        PTCLDY    76  59  55 S5        29.96R
6HR MIN TEMP:  74; 6HR MAX TEMP:  83;

ABILENE-DYESS  CLOUDY    77  60  56 SE8       29.95R
6HR MIN TEMP:  73; 6HR MAX TEMP:  83;

BRECKENRIDGE   CLEAR     77  61  57 S8        29.94R
6HR MIN TEMP:  77; 6HR MAX TEMP:  84;

GRAHAM         MOCLDY    74  65  72 CALM      29.93R
6HR MIN TEMP:  73; 6HR MAX TEMP:  80;

MINERAL WELLS  CLEAR     72  66  81 SE9       29.93R
6HR MIN TEMP:  72; 6HR MAX TEMP:  79;

STEPHENVILLE   PTCLDY    73  64  73 CALM      29.99R
6HR MIN TEMP:  73; 6HR MAX TEMP:  78;

COMANCHE       PTCLDY    73  65  74 S6        29.98R
6HR MIN TEMP:  73; 6HR MAX TEMP:  81;

BROWNWOOD      PTCLDY    73  63  68 SE5       29.98R
COLEMAN        PTCLDY    72  62  70 S5        29.98R
6HR MIN TEMP:  72; 6HR MAX TEMP:  81;

BRADY          CLEAR     73  64  73 CALM      29.99R
$$

TXZ143>147-156>162-174-175-041300-
CENTRAL TEXAS

CITY           SKY/WX    TMP DP  RH WIND       PRES   REMARKS
WACO           CLEAR     77  70  79 S7        29.95R
6HR MIN TEMP:  77; 6HR MAX TEMP:  84;

WACO-TSTC      CLEAR     75  70  83 SE6       29.95
HILLSBORO      CLEAR     77  65  66 SE3       29.95R
6HR MIN TEMP:  77; 6HR MAX TEMP:  82;

CORSICANA      CLEAR     76  70  82 SW6       29.96R
6HR MIN TEMP:  76; 6HR MAX TEMP:  82;

MEXIA          CLEAR     72  69  90 NE5       29.95R
6HR MIN TEMP:  72; 6HR MAX TEMP:  78;

HEARNE         CLEAR     74  71  91 E3        29.96R
6HR MIN TEMP:  73; 6HR MAX TEMP:  79;

CAMERON        CLEAR     76  73  91 S3        29.94R
6HR MIN TEMP:  76; 6HR MAX TEMP:  83;

TEMPLE         CLEAR     73  66  78 SE5       29.95R
6HR MIN TEMP:  73; 6HR MAX TEMP:  81;

KILLEEN        CLEAR     76  71  83 VRB3      29.96R
6HR MIN TEMP:  73; 6HR MAX TEMP:  80;

KILLEEN-SKYLRK   N/A    N/A N/A N/A MISG        N/A
FORT HOOD      CLEAR     76  71  82 VRB6      29.95R
6HR MIN TEMP:  76; 6HR MAX TEMP:  81;

GATESVILLE     CLEAR     77  70  78 CALM      29.98R
HAMILTON       CLEAR     74  65  73 S6        29.99R
6HR MIN TEMP:  73; 6HR MAX TEMP:  78;

LAMPASAS       CLEAR     73  69  88 CALM      29.97R
6HR MIN TEMP:  72; 6HR MAX TEMP:  79;

$$

TXZ095>097-106>112-122>126-135>138-148>153-164>167-041300-
EAST TEXAS

CITY           SKY/WX    TMP DP  RH WIND       PRES   REMARKS
PARIS          CLOUDY    75  64  69 E5        29.96R
6HR MIN TEMP:  75; 6HR MAX TEMP:  81;

SULPHUR SPRNGS CLOUDY    81  67  63 S6        29.98R
6HR MIN TEMP:  81; 6HR MAX TEMP:  83;

MOUNT PLEASANT MOCLDY    73  66  79 CALM      29.97R
6HR MIN TEMP:  70; 6HR MAX TEMP:  78;

GILMER         CLEAR     71  66  84 CALM      29.96R
6HR MIN TEMP:  69; 6HR MAX TEMP:  77;

MINEOLA        MOCLDY    73  70  88 CALM      29.97R
TYLER          CLEAR     74  67  78 S5        29.96R
6HR MIN TEMP:  74; 6HR MAX TEMP:  81;

LONGVIEW       CLEAR     73  67  81 S3        29.95R
6HR MIN TEMP:  73; 6HR MAX TEMP:  80;

MARSHALL       CLEAR     75  70  83 CALM      29.98R
6HR MIN TEMP:  73; 6HR MAX TEMP:  79;

ATHENS         CLEAR     68  64  88 CALM      29.95R
PALESTINE      CLEAR     74  71  87 SE3       29.97R
JACKSONVILLE   CLEAR     76  69  78 S5        29.99R
HENDERSON      CLEAR     71  67  88 MISG      29.98R
6HR MIN TEMP:  69; 6HR MAX TEMP:  74;

CENTER         FAIR      74  70  87 CALM      29.96S
6HR MIN TEMP:  74; 6HR MAX TEMP:  80;

NACOGDOCHES    CLEAR     70  68  94 CALM      29.97R
6HR MIN TEMP:  70; 6HR MAX TEMP:  73;

LUFKIN         CLEAR     70  68  93 CALM      29.97R FOG
6HR MIN TEMP:  70; 6HR MAX TEMP:  79;

$$

SUPPLEMENTAL OBSERVATIONS (CENTRAL)

CITY           SKY/WX    TMP DP  RH WIND       PRES   REMARKS
LAKE TEXOMA      N/A     77  68  73 E3          N/A
PAT MAYSE LAKE   N/A     75  64  69 CALM        N/A
ATHENS           N/A     75  66  73 S2          N/A
LAKE LIMESTONE   N/A     72  66  83 CALM        N/A
MCGREGOR         N/A     73  66  78 SW1         N/A
TEMPLE           N/A     75  72  88 CALM        N/A
$$

SUPPLEMENTAL OBSERVATIONS (WEST)

CITY           SKY/WX    TMP DP  RH WIND       PRES   REMARKS
MILLERS CREEK    N/A     75  63  64 SW5         N/A
POSSUM KINGDOM   N/A     77  59  53 S5          N/A



USA.gov is the U.S. government's official web portal to all federal, state and local government web resources and services.